CAL904 VHHH-RCTP

Flight info

Callsign CAL904
Flight time 1h 22m
Altitude 39000
Route DALOL V631 ENVAR M750 EXTRA/N0517F290 M750 TONGA TONGA1A
Aircraft B77W/H-SDE1E2E3FGHIJ2J3J4J5M1RWXY/LB1D1

Departure

Time 2026-05-04 02:48
Airport Hong Kong International Airport (VHHH)

Arrival

Time 2026-05-04 04:11
Airport Taiwan Taoyuan International Airport (RCTP)
Time Latitude Longitude Altitude Speed Heading
2026-05-04 02:20 22.31277 113.92906 42 ft 0 kts 341°
2026-05-04 02:33 22.31275 113.92907 42 ft 1 kts 341°
2026-05-04 02:34 22.31261 113.92912 42 ft 2 kts 341°
2026-05-04 02:34 22.31246 113.92918 42 ft 2 kts 341°
2026-05-04 02:34 22.31232 113.92922 42 ft 2 kts 341°
2026-05-04 02:34 22.31218 113.92928 42 ft 2 kts 340°
2026-05-04 02:35 22.31205 113.92936 42 ft 2 kts 309°
2026-05-04 02:35 22.31198 113.92950 42 ft 2 kts 282°
2026-05-04 02:35 22.31197 113.92966 42 ft 2 kts 257°
2026-05-04 02:35 22.31202 113.92981 42 ft 2 kts 246°
2026-05-04 02:36 22.31208 113.92996 42 ft 1 kts 250°
2026-05-04 02:36 22.31209 113.92999 42 ft 0 kts 250°
2026-05-04 02:38 22.31206 113.92991 42 ft 4 kts 251°
2026-05-04 02:38 22.31189 113.92937 42 ft 9 kts 251°
2026-05-04 02:38 22.31148 113.92879 42 ft 10 kts 212°
2026-05-04 02:38 22.31078 113.92841 42 ft 11 kts 206°
2026-05-04 02:39 22.31001 113.92800 42 ft 12 kts 206°
2026-05-04 02:39 22.30923 113.92760 42 ft 12 kts 205°
2026-05-04 02:39 22.30850 113.92713 42 ft 11 kts 227°
2026-05-04 02:39 22.30813 113.92627 42 ft 13 kts 251°
2026-05-04 02:40 22.30778 113.92521 42 ft 15 kts 251°
2026-05-04 02:40 22.30739 113.92401 42 ft 17 kts 251°
2026-05-04 02:40 22.30700 113.92278 42 ft 16 kts 251°
2026-05-04 02:40 22.30663 113.92162 42 ft 15 kts 251°
2026-05-04 02:41 22.30627 113.92050 42 ft 15 kts 251°
2026-05-04 02:41 22.30593 113.91946 42 ft 14 kts 251°
2026-05-04 02:41 22.30561 113.91847 42 ft 13 kts 251°
2026-05-04 02:41 22.30529 113.91748 42 ft 14 kts 251°
2026-05-04 02:42 22.30495 113.91643 42 ft 15 kts 251°
2026-05-04 02:42 22.30462 113.91538 42 ft 14 kts 251°
2026-05-04 02:42 22.30429 113.91437 42 ft 14 kts 251°
2026-05-04 02:42 22.30391 113.91320 42 ft 17 kts 251°
2026-05-04 02:43 22.30350 113.91191 42 ft 17 kts 251°
2026-05-04 02:43 22.30309 113.91067 42 ft 16 kts 251°
2026-05-04 02:43 22.30272 113.90952 42 ft 15 kts 251°
2026-05-04 02:43 22.30236 113.90840 42 ft 15 kts 251°
2026-05-04 02:44 22.30203 113.90736 42 ft 14 kts 251°
2026-05-04 02:44 22.30171 113.90636 42 ft 13 kts 251°
2026-05-04 02:44 22.30139 113.90540 42 ft 13 kts 251°
2026-05-04 02:44 22.30110 113.90449 42 ft 12 kts 251°
2026-05-04 02:45 22.30082 113.90361 42 ft 12 kts 251°
2026-05-04 02:45 22.30055 113.90278 42 ft 11 kts 250°
2026-05-04 02:45 22.30029 113.90197 42 ft 11 kts 251°
2026-05-04 02:45 22.30004 113.90119 42 ft 11 kts 251°
2026-05-04 02:46 22.29977 113.90033 42 ft 12 kts 251°
2026-05-04 02:46 22.29947 113.89939 42 ft 12 kts 251°
2026-05-04 02:46 22.29915 113.89843 42 ft 13 kts 250°
2026-05-04 02:46 22.29875 113.89748 42 ft 13 kts 225°
2026-05-04 02:47 22.29782 113.89751 42 ft 14 kts 160°
2026-05-04 02:47 22.29681 113.89790 42 ft 14 kts 160°
2026-05-04 02:47 22.29639 113.89860 42 ft 7 kts 75°
2026-05-04 02:47 22.29671 113.89964 42 ft 37 kts 71°
2026-05-04 02:48 22.29854 113.90526 42 ft 118 kts 70°
2026-05-04 02:48 22.30192 113.91569 289 ft 161 kts 67°
2026-05-04 02:48 22.30563 113.92709 1166 ft 165 kts 69°
2026-05-04 02:48 22.30935 113.93881 1784 ft 170 kts 68°
2026-05-04 02:49 22.31350 113.95164 2194 ft 187 kts 69°
2026-05-04 02:49 22.31811 113.96593 2704 ft 203 kts 69°
2026-05-04 02:49 22.32298 113.98109 3207 ft 219 kts 70°
2026-05-04 02:49 22.32815 113.99719 4039 ft 219 kts 70°
2026-05-04 02:50 22.33329 114.01318 4687 ft 227 kts 70°
2026-05-04 02:50 22.33795 114.02980 5318 ft 233 kts 80°
2026-05-04 02:50 22.33798 114.04747 5950 ft 238 kts 103°
2026-05-04 02:50 22.33159 114.06409 6586 ft 239 kts 126°
2026-05-04 02:51 22.32004 114.07714 7219 ft 240 kts 147°
2026-05-04 02:51 22.30482 114.08536 7651 ft 251 kts 166°
2026-05-04 02:51 22.28715 114.08830 8157 ft 259 kts 183°
2026-05-04 02:51 22.26870 114.08766 8686 ft 271 kts 186°
2026-05-04 02:52 22.24915 114.08701 9175 ft 285 kts 184°
2026-05-04 02:52 22.22843 114.08669 9909 ft 290 kts 184°
2026-05-04 02:52 22.20780 114.08702 10588 ft 299 kts 179°
2026-05-04 02:52 22.18642 114.09058 11044 ft 318 kts 170°
2026-05-04 02:53 22.16434 114.09849 11549 ft 337 kts 160°
2026-05-04 02:53 22.14267 114.11131 12090 ft 356 kts 149°
2026-05-04 02:53 22.12292 114.12891 12637 ft 375 kts 138°
2026-05-04 02:53 22.10562 114.15200 13193 ft 395 kts 126°
2026-05-04 02:54 22.09254 114.17916 13726 ft 415 kts 115°
2026-05-04 02:54 22.08347 114.20965 14443 ft 426 kts 109°
2026-05-04 02:54 22.07330 114.24030 15328 ft 429 kts 118°
2026-05-04 02:54 22.05843 114.26849 16204 ft 431 kts 128°
2026-05-04 02:55 22.01589 114.31468 17880 ft 432 kts 148°
2026-05-04 02:55 21.99081 114.33348 18693 ft 437 kts 149°
2026-05-04 02:55 21.96560 114.35238 19457 ft 443 kts 149°
2026-05-04 02:56 21.94003 114.37182 20195 ft 450 kts 148°
2026-05-04 02:56 21.91427 114.39160 20919 ft 456 kts 148°
2026-05-04 02:56 21.88838 114.41289 21635 ft 465 kts 142°
2026-05-04 02:56 21.86532 114.43848 22308 ft 476 kts 133°
2026-05-04 02:57 21.84611 114.46812 23019 ft 485 kts 123°
2026-05-04 02:57 21.83121 114.50159 23866 ft 491 kts 113°
2026-05-04 02:57 21.82087 114.53760 24596 ft 498 kts 107°
2026-05-04 02:57 21.81198 114.57424 25141 ft 507 kts 107°
2026-05-04 02:58 21.80275 114.61200 25746 ft 514 kts 107°
2026-05-04 02:58 21.79340 114.64967 26438 ft 519 kts 107°
2026-05-04 02:58 21.78373 114.68816 27070 ft 525 kts 107°
2026-05-04 02:58 21.77385 114.72705 27654 ft 532 kts 108°
2026-05-04 02:59 21.76395 114.76580 28249 ft 537 kts 107°
2026-05-04 02:59 21.75386 114.80508 28838 ft 543 kts 107°
2026-05-04 02:59 21.74591 114.84624 29385 ft 551 kts 98°
2026-05-04 02:59 21.74340 114.88804 30171 ft 552 kts 91°
2026-05-04 03:00 21.74328 114.92973 31107 ft 549 kts 91°
2026-05-04 03:00 21.74335 114.97049 32022 ft 544 kts 91°
2026-05-04 03:00 21.74341 115.01140 32844 ft 541 kts 91°
2026-05-04 03:00 21.74344 115.05331 33645 ft 541 kts 91°
2026-05-04 03:01 21.74345 115.09372 34436 ft 539 kts 91°
2026-05-04 03:01 21.74344 115.13448 35287 ft 536 kts 91°
2026-05-04 03:01 21.74341 115.17581 36153 ft 532 kts 91°
2026-05-04 03:01 21.74337 115.21645 36878 ft 530 kts 91°
2026-05-04 03:02 21.74331 115.25665 37434 ft 530 kts 90°
2026-05-04 03:02 21.74324 115.29759 37929 ft 531 kts 91°
2026-05-04 03:02 21.74316 115.33806 38423 ft 530 kts 91°
2026-05-04 03:02 21.74306 115.37857 38964 ft 529 kts 91°
2026-05-04 03:03 21.74296 115.41882 39066 ft 532 kts 91°
2026-05-04 03:03 21.74272 115.49995 39067 ft 528 kts 91°
2026-05-04 03:04 21.74243 115.58049 39069 ft 528 kts 91°
2026-05-04 03:04 21.74214 115.66020 39065 ft 528 kts 91°
2026-05-04 03:05 21.74182 115.73968 39062 ft 529 kts 91°
2026-05-04 03:05 21.74146 115.81922 39060 ft 527 kts 91°
2026-05-04 03:06 21.74106 115.89938 39049 ft 528 kts 91°
2026-05-04 03:06 21.74062 115.97919 39047 ft 527 kts 91°
2026-05-04 03:07 21.74014 116.05907 39046 ft 528 kts 91°
2026-05-04 03:07 21.73962 116.13862 39044 ft 526 kts 91°
2026-05-04 03:08 21.73907 116.21757 39037 ft 529 kts 91°
2026-05-04 03:08 21.73849 116.29649 39035 ft 527 kts 91°
2026-05-04 03:09 21.73786 116.37611 39035 ft 527 kts 91°
2026-05-04 03:09 21.73720 116.45524 39035 ft 527 kts 91°
2026-05-04 03:10 21.73650 116.53406 39038 ft 526 kts 91°
2026-05-04 03:10 21.73575 116.61276 39038 ft 526 kts 91°
2026-05-04 03:11 21.73485 116.69190 39026 ft 527 kts 91°
2026-05-04 03:11 21.73698 116.77124 39028 ft 526 kts 81°
2026-05-04 03:12 21.75627 116.84710 39034 ft 526 kts 68°
2026-05-04 03:12 21.78285 116.92034 39028 ft 525 kts 67°
2026-05-04 03:13 21.80963 116.99404 39028 ft 526 kts 67°
2026-05-04 03:13 21.83617 117.06736 39032 ft 525 kts 67°
2026-05-04 03:14 21.86271 117.14084 39033 ft 526 kts 67°
2026-05-04 03:14 21.88946 117.21507 39033 ft 526 kts 67°
2026-05-04 03:15 21.91595 117.28874 39032 ft 527 kts 67°
2026-05-04 03:15 21.94233 117.36221 39034 ft 527 kts 67°
2026-05-04 03:16 21.96877 117.43601 39034 ft 526 kts 67°
2026-05-04 03:16 21.99738 117.50918 39040 ft 524 kts 58°
2026-05-04 03:17 22.03500 117.57661 39039 ft 524 kts 56°
2026-05-04 03:17 22.07324 117.64379 39043 ft 524 kts 56°
2026-05-04 03:18 22.11171 117.71152 39029 ft 524 kts 57°
2026-05-04 03:18 22.14982 117.77875 39033 ft 525 kts 56°
2026-05-04 03:19 22.18793 117.84610 39035 ft 525 kts 56°
2026-05-04 03:19 22.22617 117.91376 39036 ft 526 kts 56°
2026-05-04 03:20 22.26432 117.98139 39034 ft 526 kts 56°
2026-05-04 03:20 22.30299 118.04882 39039 ft 526 kts 55°
2026-05-04 03:21 22.34255 118.11643 39038 ft 527 kts 55°
2026-05-04 03:21 22.38170 118.18349 39039 ft 526 kts 55°
2026-05-04 03:22 22.42059 118.25081 39043 ft 527 kts 56°
2026-05-04 03:22 22.45920 118.31903 39040 ft 526 kts 56°
2026-05-04 03:23 22.49740 118.38659 39039 ft 525 kts 56°
2026-05-04 03:23 22.53566 118.45430 39040 ft 528 kts 56°
2026-05-04 03:24 22.57406 118.52232 39042 ft 527 kts 56°
2026-05-04 03:24 22.61293 118.59054 39038 ft 528 kts 56°
2026-05-04 03:25 22.65149 118.65823 39038 ft 528 kts 56°
2026-05-04 03:25 22.69021 118.72630 39029 ft 530 kts 56°
2026-05-04 03:26 22.72905 118.79471 39031 ft 529 kts 56°
2026-05-04 03:26 22.76759 118.86266 39030 ft 529 kts 56°
2026-05-04 03:27 22.80604 118.93055 39032 ft 529 kts 56°
2026-05-04 03:27 22.84478 118.99905 39031 ft 530 kts 56°
2026-05-04 03:28 22.88333 119.06728 39034 ft 530 kts 56°
2026-05-04 03:28 22.92185 119.13557 39028 ft 531 kts 56°
2026-05-04 03:29 22.96079 119.20470 39026 ft 531 kts 56°
2026-05-04 03:29 22.99927 119.27310 39022 ft 530 kts 56°
2026-05-04 03:30 23.03750 119.34115 39017 ft 528 kts 56°
2026-05-04 03:30 23.07579 119.40939 39018 ft 531 kts 56°
2026-05-04 03:31 23.11426 119.47806 38875 ft 525 kts 56°
2026-05-04 03:31 23.13345 119.51234 38046 ft 526 kts 56°
2026-05-04 03:31 23.15347 119.54621 37154 ft 525 kts 51°
2026-05-04 03:31 23.17677 119.57664 36369 ft 521 kts 43°
2026-05-04 03:32 23.20363 119.60354 35587 ft 516 kts 34°
2026-05-04 03:32 23.23301 119.62605 34784 ft 510 kts 26°
2026-05-04 03:32 23.26388 119.64582 33935 ft 510 kts 25°
2026-05-04 03:32 23.29530 119.66549 33045 ft 527 kts 25°
2026-05-04 03:33 23.32744 119.68560 32177 ft 538 kts 26°
2026-05-04 03:33 23.36006 119.70610 31258 ft 540 kts 26°
2026-05-04 03:33 23.39280 119.72671 30412 ft 538 kts 26°
2026-05-04 03:33 23.42496 119.74699 29930 ft 529 kts 26°
2026-05-04 03:34 23.45654 119.76694 29415 ft 521 kts 26°
2026-05-04 03:34 23.48758 119.78657 28851 ft 516 kts 27°
2026-05-04 03:34 23.51784 119.80704 28392 ft 512 kts 28°
2026-05-04 03:34 23.54810 119.82799 27956 ft 517 kts 28°
2026-05-04 03:35 23.57865 119.84915 27491 ft 515 kts 28°
2026-05-04 03:35 23.60917 119.87028 27021 ft 510 kts 28°
2026-05-04 03:35 23.63891 119.89087 26562 ft 504 kts 28°
2026-05-04 03:35 23.66841 119.91127 26110 ft 500 kts 28°
2026-05-04 03:36 23.69758 119.93143 25662 ft 498 kts 28°
2026-05-04 03:36 23.72677 119.95161 25213 ft 495 kts 28°
2026-05-04 03:36 23.75570 119.97161 24767 ft 491 kts 28°
2026-05-04 03:36 23.78442 119.99147 24323 ft 487 kts 28°
2026-05-04 03:37 23.81303 120.01126 23882 ft 483 kts 28°
2026-05-04 03:37 23.84151 120.03097 23456 ft 480 kts 28°
2026-05-04 03:37 23.86989 120.05061 23035 ft 478 kts 28°
2026-05-04 03:37 23.89768 120.06986 22603 ft 475 kts 28°
2026-05-04 03:38 23.92546 120.08910 22172 ft 471 kts 28°
2026-05-04 03:38 23.95300 120.10819 21767 ft 469 kts 28°
2026-05-04 03:38 23.98062 120.12734 21333 ft 466 kts 28°
2026-05-04 03:38 24.00792 120.14628 20922 ft 462 kts 28°
2026-05-04 03:39 24.03486 120.16499 20505 ft 459 kts 28°
2026-05-04 03:39 24.06189 120.18375 20085 ft 457 kts 28°
2026-05-04 03:39 24.08874 120.20241 19676 ft 455 kts 28°
2026-05-04 03:39 24.11540 120.22094 19257 ft 453 kts 28°
2026-05-04 03:40 24.14223 120.23961 18865 ft 449 kts 28°
2026-05-04 03:40 24.16872 120.25803 18463 ft 449 kts 29°
2026-05-04 03:40 24.18591 120.27001 18208 ft 447 kts 28°
2026-05-04 03:40 24.21862 120.29280 17681 ft 443 kts 29°
2026-05-04 03:41 24.24433 120.31072 17267 ft 439 kts 29°
2026-05-04 03:41 24.27064 120.32906 16908 ft 437 kts 29°
2026-05-04 03:41 24.29651 120.34712 16500 ft 436 kts 28°
2026-05-04 03:41 24.32218 120.36503 16121 ft 432 kts 28°
2026-05-04 03:42 24.34765 120.38282 15741 ft 429 kts 29°
2026-05-04 03:42 24.37342 120.40083 15323 ft 426 kts 28°
2026-05-04 03:42 24.39888 120.41862 14924 ft 424 kts 28°
2026-05-04 03:42 24.42405 120.43622 14553 ft 422 kts 28°
2026-05-04 03:43 24.44918 120.45380 14162 ft 419 kts 29°
2026-05-04 03:43 24.47358 120.47088 13791 ft 417 kts 29°
2026-05-04 03:43 24.49856 120.48838 13387 ft 413 kts 28°
2026-05-04 03:43 24.52311 120.50558 13036 ft 412 kts 29°
2026-05-04 03:44 24.54766 120.52278 12655 ft 411 kts 29°
2026-05-04 03:44 24.57216 120.53997 12259 ft 407 kts 29°
2026-05-04 03:44 24.59627 120.55688 11927 ft 405 kts 29°
2026-05-04 03:44 24.62032 120.57376 11566 ft 404 kts 29°
2026-05-04 03:45 24.64405 120.59043 11174 ft 401 kts 30°
2026-05-04 03:45 24.66775 120.60723 10784 ft 401 kts 32°
2026-05-04 03:45 24.68998 120.62704 10349 ft 397 kts 39°
2026-05-04 03:45 24.71036 120.64700 9943 ft 390 kts 40°
2026-05-04 03:46 24.73046 120.66679 9554 ft 383 kts 40°
2026-05-04 03:46 24.75034 120.68635 9182 ft 375 kts 41°
2026-05-04 03:46 24.77015 120.70585 8825 ft 367 kts 41°
2026-05-04 03:46 24.79001 120.72540 8428 ft 355 kts 40°
2026-05-04 03:47 24.80841 120.74352 8125 ft 335 kts 41°
2026-05-04 03:47 24.82531 120.76016 7846 ft 319 kts 41°
2026-05-04 03:47 24.84168 120.77629 7581 ft 304 kts 41°
2026-05-04 03:47 24.85728 120.79166 7360 ft 298 kts 41°
2026-05-04 03:48 24.87301 120.80715 7055 ft 296 kts 41°
2026-05-04 03:48 24.88907 120.82297 6744 ft 293 kts 41°
2026-05-04 03:48 24.90405 120.83808 6446 ft 290 kts 46°
2026-05-04 03:48 24.91406 120.85650 6173 ft 285 kts 73°
2026-05-04 03:49 24.91686 120.87756 5939 ft 279 kts 89°
2026-05-04 03:49 24.91678 120.89887 5633 ft 274 kts 92°
2026-05-04 03:49 24.91597 120.92000 5389 ft 263 kts 92°
2026-05-04 03:49 24.91504 120.94031 5168 ft 254 kts 92°
2026-05-04 03:50 24.91412 120.95991 4991 ft 247 kts 92°
2026-05-04 03:50 24.91325 120.97855 4947 ft 232 kts 92°
2026-05-04 03:50 24.91246 120.99565 4938 ft 217 kts 91°
2026-05-04 03:50 24.91466 121.01225 4764 ft 217 kts 65°
2026-05-04 03:51 24.92292 121.02641 4481 ft 215 kts 53°
2026-05-04 03:51 24.93242 121.03931 4208 ft 214 kts 51°
2026-05-04 03:51 24.94221 121.05182 3938 ft 203 kts 50°
2026-05-04 03:51 24.95124 121.06307 3681 ft 186 kts 50°
2026-05-04 03:52 24.95954 121.07337 3455 ft 170 kts 51°
2026-05-04 03:52 24.96732 121.08309 3226 ft 159 kts 51°
2026-05-04 03:52 24.97473 121.09242 3006 ft 158 kts 50°
2026-05-04 03:52 24.98211 121.10166 2791 ft 155 kts 50°
2026-05-04 03:53 24.98929 121.11071 2573 ft 149 kts 50°
2026-05-04 03:53 24.99595 121.11909 2371 ft 133 kts 50°
2026-05-04 03:53 25.00203 121.12676 2184 ft 129 kts 49°
2026-05-04 03:53 25.00792 121.13416 2020 ft 125 kts 50°
2026-05-04 03:54 25.01374 121.14154 1820 ft 124 kts 50°
2026-05-04 03:54 25.01948 121.14881 1646 ft 123 kts 50°
2026-05-04 03:54 25.02508 121.15599 1487 ft 124 kts 50°
2026-05-04 03:54 25.03103 121.16338 1321 ft 130 kts 50°
2026-05-04 03:55 25.03706 121.17103 1119 ft 132 kts 50°
2026-05-04 03:55 25.04344 121.17909 934 ft 143 kts 50°
2026-05-04 03:55 25.05027 121.18759 775 ft 143 kts 50°
2026-05-04 03:55 25.05713 121.19595 604 ft 144 kts 50°
2026-05-04 03:56 25.06403 121.20458 408 ft 147 kts 51°
2026-05-04 03:56 25.07083 121.21333 219 ft 150 kts 51°
2026-05-04 03:56 25.07774 121.22213 124 ft 137 kts 51°
2026-05-04 03:56 25.08392 121.23011 279 ft 150 kts 52°
2026-05-04 03:57 25.09051 121.23907 1157 ft 151 kts 53°
2026-05-04 03:57 25.09734 121.24786 2215 ft 163 kts 49°
2026-05-04 03:57 25.10594 121.25813 2886 ft 198 kts 41°
2026-05-04 03:57 25.11868 121.26572 2964 ft 205 kts 18°
2026-05-04 03:58 25.14719 121.25876 2958 ft 224 kts 326°
2026-05-04 03:58 25.15664 121.24392 2963 ft 246 kts 295°
2026-05-04 03:58 25.15877 121.22450 2974 ft 260 kts 274°
2026-05-04 03:59 25.15829 121.20428 2968 ft 260 kts 272°
2026-05-04 03:59 25.15765 121.18397 2969 ft 261 kts 272°
2026-05-04 03:59 25.15700 121.16379 2964 ft 262 kts 271°
2026-05-04 03:59 25.15278 121.14385 2955 ft 262 kts 242°
2026-05-04 04:00 25.14286 121.12672 2966 ft 264 kts 235°
2026-05-04 04:00 25.13223 121.10983 2971 ft 264 kts 235°
2026-05-04 04:00 25.12178 121.09320 2968 ft 264 kts 235°
2026-05-04 04:00 25.11122 121.07641 2963 ft 264 kts 234°
2026-05-04 04:01 25.10068 121.05951 2952 ft 266 kts 234°
2026-05-04 04:01 25.09001 121.04224 2959 ft 268 kts 235°
2026-05-04 04:01 25.07934 121.02500 2959 ft 268 kts 235°
2026-05-04 04:01 25.06868 121.00787 2964 ft 267 kts 234°
2026-05-04 04:02 25.05801 120.99058 2970 ft 266 kts 235°
2026-05-04 04:02 25.04779 120.97394 2953 ft 255 kts 235°
2026-05-04 04:02 25.03795 120.95785 2953 ft 247 kts 235°
2026-05-04 04:02 25.02649 120.94364 2921 ft 240 kts 210°
2026-05-04 04:03 25.01086 120.93739 2550 ft 232 kts 173°
2026-05-04 04:03 24.99580 120.94157 2432 ft 209 kts 136°
2026-05-04 04:03 24.98655 120.95374 2432 ft 202 kts 108°
2026-05-04 04:03 24.98086 120.96765 2438 ft 192 kts 105°
2026-05-04 04:04 24.97549 120.98118 2454 ft 188 kts 105°
2026-05-04 04:04 24.97013 120.99458 2448 ft 185 kts 105°
2026-05-04 04:04 24.96474 121.00805 2456 ft 185 kts 105°
2026-05-04 04:04 24.95975 121.02132 2449 ft 185 kts 98°
2026-05-04 04:05 24.95672 121.03513 2447 ft 175 kts 95°
2026-05-04 04:05 24.95416 121.04767 2444 ft 161 kts 95°
2026-05-04 04:05 24.95179 121.05977 2442 ft 157 kts 88°
2026-05-04 04:05 24.95511 121.07107 2442 ft 155 kts 49°
2026-05-04 04:06 24.96357 121.07828 2455 ft 152 kts 46°
2026-05-04 04:06 24.97095 121.08714 2448 ft 153 kts 51°
2026-05-04 04:06 24.97801 121.09624 2457 ft 153 kts 50°
2026-05-04 04:06 24.98521 121.10536 2456 ft 153 kts 50°
2026-05-04 04:07 24.99247 121.11453 2420 ft 157 kts 50°
2026-05-04 04:07 24.99977 121.12375 2213 ft 155 kts 50°
2026-05-04 04:07 25.00671 121.13251 2012 ft 141 kts 50°
2026-05-04 04:07 25.01303 121.14048 1833 ft 127 kts 50°
2026-05-04 04:08 25.01868 121.14762 1693 ft 121 kts 50°
2026-05-04 04:08 25.02423 121.15463 1554 ft 121 kts 50°
2026-05-04 04:08 25.03005 121.16187 1343 ft 126 kts 49°
2026-05-04 04:08 25.03604 121.16919 1183 ft 129 kts 50°
2026-05-04 04:09 25.04189 121.17687 1056 ft 133 kts 51°
2026-05-04 04:09 25.04809 121.18485 864 ft 139 kts 51°
2026-05-04 04:09 25.05459 121.19309 673 ft 141 kts 50°
2026-05-04 04:09 25.06111 121.20113 486 ft 141 kts 50°
2026-05-04 04:10 25.06764 121.20931 304 ft 142 kts 51°
2026-05-04 04:10 25.07445 121.21794 140 ft 146 kts 51°
2026-05-04 04:10 25.08066 121.22584 121 ft 115 kts 50°
2026-05-04 04:10 25.08494 121.23128 121 ft 70 kts 51°
2026-05-04 04:11 25.08696 121.23429 121 ft 29 kts 71°
2026-05-04 04:11 25.08732 121.23591 121 ft 16 kts 80°
2026-05-04 04:11 25.08751 121.23709 121 ft 14 kts 79°
2026-05-04 04:11 25.08737 121.23808 121 ft 9 kts 130°
2026-05-04 04:12 25.08685 121.23833 121 ft 7 kts 188°
2026-05-04 04:12 25.08637 121.23792 121 ft 10 kts 230°
2026-05-04 04:12 25.08581 121.23719 121 ft 13 kts 229°
2026-05-04 04:12 25.08518 121.23638 121 ft 14 kts 229°
2026-05-04 04:13 25.08454 121.23556 121 ft 14 kts 229°
2026-05-04 04:13 25.08388 121.23473 121 ft 14 kts 228°
2026-05-04 04:13 25.08323 121.23389 121 ft 14 kts 229°
2026-05-04 04:13 25.08257 121.23305 121 ft 14 kts 228°
2026-05-04 04:14 25.08191 121.23225 121 ft 11 kts 228°
2026-05-04 04:14 25.08157 121.23205 121 ft 5 kts 175°
2026-05-04 04:14 25.08123 121.23225 121 ft 5 kts 141°
2026-05-04 04:14 25.08097 121.23249 121 ft 3 kts 139°
2026-05-04 04:15 25.08088 121.23257 121 ft 0 kts 139°
2026-05-04 04:15 25.08085 121.23261 121 ft 0 kts 139°